{"data":{"norad_id":57169,"intl_designator":"2023-091D","name":"2023-091D","alt_names":[],"object_type":"PAYLOAD","status":"ACTIVE","operator":null,"country":"CIS","launch_date":"2023-06-27","launch_site_code":"VOSTO","launch_vehicle":null,"mission":null,"orbit_class":"UNKNOWN","rcs_meters":null,"size_class":null,"mass_kg":null,"dimensions":null,"purposes":[],"wikipedia_slug":null,"has_3d_model":false,"image_url":null,"decayed_at":null,"tle_current":{"epoch":"2026-09-21T21:53:58.998624Z","epoch_age_seconds":80927,"freshness":"FRESH","line1":"1 57169U 23091D   26264.91248841  .00005402  00000+0  21595-3 0  9995","line2":"2 57169  97.5014 326.6894 0011290 118.7791 241.4582 15.25485319178905","mean_motion":15.25485319,"eccentricity":0.001129,"inclination_deg":97.5014,"raan_deg":326.6894,"arg_perigee_deg":118.7791,"mean_anomaly_deg":241.4582,"bstar":0.00021595,"rev_number":17890,"period_min":94.396188679414,"perigee_km":481.57513199115,"apogee_km":497.08186909137,"semimajor_km":6867.4655005413,"source":"CELESTRAK","updated_at":"2026-09-22T09:00:26.072732Z"}}}